Location: Caltech
(34.1382°N, 118.1253°W)
Time: 12:40:25
(UTC-08:00)

Cosmos 1975 - Visible Passes

Search period start: 20 February 2017 00:00
Search period end: 02 March 2017 00:00
Orbit: 545 x 564 km, 82.5° (Epoch: 20 February)

Date Brightness Start Highest point End Pass type
(mag) Time Alt. Az. Time Alt. Az. Time Alt. Az.
28 Feb 4.7 18:30:37 10° ESE 18:36:28 - NE 18:31:39 12° E visible
28 Feb 4.6 20:05:02 10° SW 20:11:49 13° NNW 20:12:22 10° NNW visible
01 Mar 4.4 18:27:12 10° ESE 18:29:34 15° E 18:31:56 10° NE visible
01 Mar 4.8 20:02:15 10° SW 20:05:46 28° WNW 20:09:18 10° NNW visible
